TimeCST,TemperatureF,Dew PointF,Humidity,Sea Level PressureIn,VisibilityMPH,Wind Direction,Wind SpeedMPH,Gust SpeedMPH,PrecipitationIn,Events,Conditions,WindDirDegrees,DateUTC
12:53 AM,25.0,21.9,88,30.35,6.0,SW,5.8,-,N/A,,Clear,230,2013-03-02 06:53:00
1:53 AM,23.0,21.9,96,30.35,6.0,SSW,4.6,-,N/A,,Clear,210,2013-03-02 07:53:00
2:53 AM,23.0,21.0,92,30.35,5.0,WSW,4.6,-,N/A,,Clear,250,2013-03-02 08:53:00
3:53 AM,19.9,19.0,96,30.35,4.0,Calm,Calm,-,N/A,,Clear,0,2013-03-02 09:53:00
4:53 AM,19.9,19.0,96,30.32,4.0,Calm,Calm,-,N/A,,Overcast,0,2013-03-02 10:53:00
5:53 AM,21.9,19.9,92,30.31,5.0,Calm,Calm,-,N/A,,Overcast,0,2013-03-02 11:53:00
6:53 AM,24.1,21.9,91,30.31,6.0,Calm,Calm,-,N/A,,Overcast,0,2013-03-02 12:53:00
7:53 AM,26.1,23.0,88,30.31,4.0,Calm,Calm,-,N/A,,Overcast,0,2013-03-02 13:53:00
8:53 AM,25.0,23.0,92,30.30,4.0,Calm,Calm,-,N/A,,Overcast,0,2013-03-02 14:53:00
9:53 AM,30.9,28.0,89,30.28,8.0,SW,6.9,-,N/A,,Overcast,230,2013-03-02 15:53:00
10:53 AM,39.0,32.0,76,30.26,10.0,WSW,3.5,-,N/A,,Partly Cloudy,250,2013-03-02 16:53:00
11:53 AM,44.1,34.0,68,30.24,10.0,WNW,10.4,-,N/A,,Clear,290,2013-03-02 17:53:00
12:53 PM,48.0,35.1,61,30.22,10.0,WNW,10.4,-,N/A,,Clear,300,2013-03-02 18:53:00
1:53 PM,50.0,35.1,57,30.18,10.0,WNW,10.4,-,N/A,,Clear,300,2013-03-02 19:53:00
2:53 PM,51.1,35.1,54,30.16,10.0,WNW,12.7,-,N/A,,Clear,290,2013-03-02 20:53:00
3:53 PM,51.1,37.0,59,30.15,10.0,NW,9.2,-,N/A,,Clear,310,2013-03-02 21:53:00
4:53 PM,52.0,36.0,54,30.14,10.0,WNW,8.1,-,N/A,,Clear,300,2013-03-02 22:53:00
5:53 PM,52.0,37.0,57,30.14,10.0,WNW,4.6,-,N/A,,Clear,300,2013-03-02 23:53:00
6:53 PM,48.2,35.6,62,30.08,10.0,SSW,5.8,-,N/A,,Clear,210,2013-03-03 00:53:00
7:53 PM,46.9,34.0,61,30.12,10.0,SW,5.8,-,N/A,,Clear,220,2013-03-03 01:53:00
8:53 PM,39.9,33.1,77,30.12,10.0,WSW,8.1,-,N/A,,Clear,240,2013-03-03 02:53:00
9:53 PM,41.0,33.1,73,30.10,10.0,WSW,8.1,-,N/A,,Clear,250,2013-03-03 03:53:00
10:53 PM,39.9,32.0,73,30.08,10.0,West,6.9,-,N/A,,Clear,260,2013-03-03 04:53:00
11:53 PM,37.9,32.0,79,30.06,10.0,West,9.2,-,N/A,,Clear,270,2013-03-03 05:53:00